Regional Weather Roundup
Issued by NWS

Home | Current Version | Previous Version | Graphics & Text | Print | Product List | Glossary On
Versions: 1 2 3 4 5 6 7 8 9 10 11 12 13 14 15 16 17 18 19 20 21 22 23 24 25 26 27 28 29 30 31 32 33 34 35 36 37 38 39 40 41 42 43 44 45 46 47 48 49 50
000
ASUS43 KOAX 300910
RWRNE

WEATHER ROUNDUP FOR NEBRASKA
NATIONAL WEATHER SERVICE OMAHA NE
400 AM CDT THU JUL 30 2015

NOTES: SATELLITE DATA IS BEING USED TO AUGMENT CLOUD COVER ABOVE
       12000 FEET.
       "FAIR" INDICATES FEW OR NO CLOUDS BELOW 12,000 FEET WITH NO
       SIGNIFICANT WEATHER AND/OR OBSTRUCTIONS TO VISIBILITY.

  * THESE STATIONS DO NOT REPORT WEATHER SUCH AS RAIN...SNOW OR FOG.

NEZ001>004-019>022-054>056-301000-
NEBRASKA PANHANDLE

CITY           SKY/WX    TMP DP  RH WIND       PRES   REMARKS
SCOTTSBLUFF    CLEAR     61  49  64 E6        30.25S
ALLIANCE       PTCLDY    56  48  74 S3        30.25S
CHADRON        CLEAR     54  50  86 CALM      30.21S
KIMBALL        CLEAR     59  48  68 S8        30.28S
SIDNEY         CLEAR     61  50  67 S12       30.28S
$$

NEZ057>060-069>072-079>082-301000-
SOUTHWEST NEBRASKA

CITY           SKY/WX    TMP DP  RH WIND       PRES   REMARKS
NORTH PLATTE   CLEAR     57  52  83 E5        30.25S
IMPERIAL       CLEAR     59  52  77 S5        30.27R
LEXINGTON      CLEAR     60  55  83 S6        30.25S
MCCOOK         CLEAR     60  53  77 MISG      30.25S
OGALLALA       CLEAR     58  51  77 CALM      30.26S
$$

NEZ005>010-023>029-035>040-094-301000-
NORTH CENTRAL NEBRASKA

CITY           SKY/WX    TMP DP  RH WIND       PRES   REMARKS
VALENTINE      CLEAR     58  50  75 SW7       30.20S
AINSWORTH      CLEAR     62  54  76 W3        30.21S
BROKEN BOW     CLEAR     59  53  80 S5        30.23S
O`NEILL        CLEAR     60  54  80 W3        30.19S
ORD            CLEAR     58  53  84 CALM      30.21R
THEDFORD       CLEAR     65  54  66 SW6       30.23S
$$

NEZ041-046>049-061>064-073>077-083>087-301000-
SOUTH CENTRAL NEBRASKA

CITY           SKY/WX    TMP DP  RH WIND       PRES   REMARKS
GRAND ISLAND   CLEAR     59  52  77 CALM      30.22S
AURORA         CLEAR     57  54  89 SW6       30.22R
HASTINGS       CLEAR     61  53  75 SW5       30.23S
HEBRON         CLEAR     57  55  92 CALM      30.22R
HOLDREGE       CLEAR     61  51  71 S3        30.24F
KEARNEY *      CLEAR     59  50  72 SW6       30.24S
YORK           CLEAR     57  55  94 CALM      30.22R
$$

NEZ011>018-030>034-042>045-301000-
NORTHEAST NEBRASKA

CITY           SKY/WX    TMP DP  RH WIND       PRES   REMARKS
NORFOLK        CLEAR     60  55  83 SW5       30.18R
ALBION         CLEAR     64  52  64 CALM      30.20R
BLAIR          CLEAR     63  57  80 SW3       30.18R
COLUMBUS *     CLEAR     55  48  76 CALM      30.20R
FREMONT        CLEAR     66  57  71 CALM      30.18R
TEKAMAH        CLEAR     63  60  90 S7        30.16R
WAYNE          CLEAR     60  58  92 S3        30.17S
$$

NEZ050>053-065>068-078-088>093-301000-
SOUTHEAST NEBRASKA

CITY           SKY/WX    TMP DP  RH WIND       PRES   REMARKS
LINCOLN        CLEAR     63  58  83 CALM      30.20R
OMAHA EPPLEY   CLEAR     65  60  84 SE7       30.17R
BEATRICE       PTCLDY    60  59  99 CALM      30.20S FOG
FALLS CITY     CLEAR     63  63 100 CALM      30.18R FOG
NEBRASKA CITY  CLEAR     64  58  80 SW3       30.19R
PLATTSMOUTH    CLEAR     65  58  77 SW5       30.19R
$$

NEZ044-045-051>053-067-301000-
OMAHA AREA

CITY           SKY/WX    TMP DP  RH WIND       PRES   REMARKS
OMAHA EPPLEY   CLEAR     65  60  84 SE7       30.17R
BLAIR          CLEAR     63  57  80 SW3       30.18R
FREMONT        CLEAR     66  57  71 CALM      30.18R
MILLARD        CLEAR     62  60  93 CALM      30.18R
OFFUTT AFB     CLEAR     59  57  94 S2        30.17R FOG
PLATTSMOUTH    CLEAR     65  58  77 SW5       30.19R
WAHOO          FAIR      63  59  86 SW6       30.19R
$$


USA.gov is the U.S. government's official web portal to all federal, state and local government web resources and services.